EHI
0 0 0 0 0 0 0 0 0 0 0 0 0 0 0 0 0 0 0 0 0 0 0 0 0 0 0 0 0 0 0 0 0 0 0 0 0 0 0 0 0 0 0
0 0 0 0 0 0 0 0 0 0 0 0 0 0 0 0 0 0 0 0 0 0 0 0 0 0 0 0 0 0 0 0 0 0 0 0 0 0 0 0 0 0 0
0 0 0 0 0 0 0 0 0 0 0 0 0 0 0 0 0 0 0 0 0 0 0 0 0 0 0 0 0 0 0 0 0 0 0 0 0 0 0 0 0 0 0
0 0 0 0 0 0 0 0 0 0 0 0 0 0 0 0 0 0 0 0 0 0 0 0 0 0 0 0 0 0 0 0 0 0 0 0 0 0 0 0 0 0 0
0 0 0 0 0 0 0 0 0 0 0 0 0 0 0 0 0 0 0 0 0 0 0 0 0 0 0 0 0 0 0 0 0 0 0 0 0 0 0 0 0 0 0
0 0 0 0 0 0 0 0 0 0 0 0 0 0 0 0 0 0 0 0 0 0 0 0 0 0 0 0 0 0 0 0 0 0 0 0 0 0 0 0 0 0 0
0 0 0 0 0 0 0 0 0 0 0 0 0 0 0 0 0 0 0 0 0 0 0 0 0 0 0 0 0 0 0 0 0 0 0 0 0 0 0 0 0 0 0
0 0 0 0 0 0 0 0 0 0 0 0 0 0 0 0 0 0 0 0 0 0 0 0 0 0 0 0 0 0 0 0 0 0 0 0 0 0 0 0 0 0 0
0 0 0 0 0 0 0 0 0 0 0 0 0 0 0 0 0 0 0 0 0 0 0 0 0 0 0 0 0 0 0 0 0 0 0 0 0 0 0 0 0 0 0
0 0 0 0 0 0 0 0 0 0 0 0 0 0 0 0 0 0 0 0 0 0 0 0 0 0 0 0 0 0 0 0 0 0 0 0 0 0 0 0 0 0 0
0 0 0 0 0 0 0 0 0 0 0 0 0 0 0 0 0 0 0 0 0 0 0 0 0 0 0 0 0 0 0 0 0 0 0 0 0 0 0 0 0 0 0
0 0 0 0 0 0 0 0 0 0 0 0 0 0 0 0 0 0 0 0 0 0 0 0 0 0 0 0 0 0 0 0 0 0 0 0 0 0 0 0 0 0 0
0 0 0 0 0 0 0 0 0 0 0 0 0 0 0 0 0 0 0 0 0 0 0 0 0 0 0 0 0 0 0 0 0 0 0 0 0 0 0 0 0 0 0
0 0 0 0 0 0 0 0 0 0 0 0 0 0 0 0 0 0 0 0 0 0 0 0 0 0 0 0 0 0 0 0 0 0 0 0 0 0 0 0 0 0 0
0 0 0 0 0 0 0 0 0 0 0 0 0 0 0 0 0 0 0 0 0 0 0 0 0 0 0 0 0 0 0 0 0 0 0 0 0 0 0 0 0 0 0
0 0 0 0 0 0 0 0 0 0 0 0 0 0 0 0 0 0 0 0 0 0 0 0 0 0 0 0 0 0 0 0 0 0 0 0 0 0 0 0 0 0 0
0 0 0 0 0 0 0 0 0 0 0 0 0 0 0 0 0 0 0 0 0 0 0 0 0 0 0 0 0 0 0 0 0 0 0 0 0 0 0 0 0 0 0
0 0 0 0 0 0 0 0 0 0 0 0 0 0 0 0 0 0 0 0 0 0 0 0 0 0 0 0 0 0 0 0 0 0 0 0 0 0 0 0 0 0 0
0 0 0 0 0 0 0 0 0 0 0 0 0 0 0 0 0 0 0 0 0 0 0 0 0 0 0 0 0 0 0 0 0 0 0 0 0 0 0 0 0 0 0
0 0 0 0 0 0 0 0 0 0 0 0 0 0 0 0 0 0 0 0 0 0 0 0 0 0 0 0 0 0 0 0 0 0 0 0 0 0 0 0 0 0 0
0 0 0 0 0 0 0 0 0 0 0 0 0 0 0 0 0 0 0 0 0 0 0 0 0 0 0 0 0 0 0 0 0 0 0 0 0 0 0 0 0 0 0
0 0 0 0 0 0 0 0 0 0 0 0 0 0 0 0 0 0 0 0 0 0 0 0 0 0 0 0 0 0 0 0 0 0 0 0 0 0 0 0 0 0 0
0 0 0 0 0 0 0 0 0 0 0 0 0 0 0 0 0 0 0 0 0 0 0 0 0 0 0 0 0 0 0 0 0 0 0 0 0 0 0 0 0 0 0
0 0 0 0 0 0 0 0 0 0 0 0 0 0 0 0 0 0 0 0 0 0 0 0 0 0 0 0 0 0 0 0 0 0 0 0 0 0 0 0 0 0 0
0 0 0 0 0 0 0 0 0 0 0 0 0 0 0 0 0 0 0 0 0 0 0 0 0 0 0 0 0 0 0 0 0 0 0 0 0 0 0 0 0 0 0
0 0 0 0 0 0 0 0 0 0 0 0 0 0 0 0 0 0 0 0 0 0 0 0 0 0 0 0 0 0 0 0 0 0 0 0 0 0 0 0 0 0 0
Wind_Speed
6 6 6 6 6 6 6 7 7 7 7 7 7 7 7 8 8 8 9 9 10 10 9 10 10 10 7 7 7 7 8 8 9 7 5 5 6 6 5 5 5 6 6
6 7 7 7 6 6 7 7 6 7 6 7 7 7 8 8 8 8 9 9 10 10 10 10 10 8 10 8 7 8 8 8 8 9 6 5 7 7 6 6 5 5 6
7 7 7 7 6 7 8 7 6 6 7 7 7 8 8 8 8 9 9 9 10 10 10 10 10 10 10 8 9 8 8 7 7 7 7 5 5 5 6 6 6 5 5
7 7 7 7 7 7 8 7 6 6 7 7 7 8 8 8 9 9 9 9 9 9 10 10 10 10 10 10 9 9 8 8 8 7 6 6 5 5 5 5 5 5 4
7 7 8 8 7 7 7 6 6 6 7 7 8 8 8 8 8 8 9 9 10 10 9 10 10 10 11 10 8 9 9 8 7 7 7 6 6 5 6 5 6 4 4
8 8 8 8 7 7 7 7 6 6 6 7 7 8 8 7 9 10 10 9 9 9 9 9 10 10 11 13 13 12 11 10 9 8 8 8 8 7 6 5 5 4 4
8 8 8 8 8 7 7 6 6 6 7 7 7 8 8 9 10 11 11 9 8 8 9 8 7 7 10 10 11 12 11 11 11 10 10 9 8 7 6 7 7 6 6
8 8 8 7 8 7 7 7 7 6 6 6 7 7 8 8 9 10 10 9 8 9 9 8 8 8 7 8 9 9 9 9 9 9 9 9 8 7 8 8 7 5 4
8 8 8 8 8 7 7 7 7 6 6 7 6 7 7 7 8 9 9 7 7 8 8 8 8 8 8 8 8 9 9 8 8 9 9 8 8 9 7 5 5 5 4
8 8 8 8 8 8 8 7 7 6 7 6 6 6 7 7 8 8 9 6 6 7 6 7 8 9 8 9 8 8 9 7 6 6 6 6 7 7 8 8 7 6 4
8 8 8 7 7 8 7 6 6 6 7 6 6 6 7 7 8 8 8 6 6 6 5 5 5 8 9 9 9 8 8 7 6 6 5 5 5 4 5 5 5 5 6
8 8 8 8 7 6 6 6 6 6 7 6 6 6 5 6 7 7 8 8 7 6 5 5 5 7 8 9 8 7 8 7 5 5 5 5 5 4 3 3 3 3 3
8 8 7 7 7 6 6 7 6 6 5 5 5 5 5 4 5 7 7 7 8 6 5 6 6 7 7 7 7 7 6 5 5 5 5 5 4 3 3 2 2 2 1
8 7 7 7 7 6 5 5 5 5 5 5 5 5 4 4 4 3 4 4 5 6 5 4 5 5 4 5 5 4 4 4 4 4 4 3 2 3 3 3 3 2 2
7 6 6 6 6 6 6 5 6 6 6 6 5 5 4 4 4 5 4 3 3 3 3 3 3 2 2 2 2 3 3 3 3 2 2 2 2 2 2 2 2 2 3
6 6 5 5 5 5 6 6 7 8 9 9 8 7 6 6 6 5 5 5 4 4 3 2 2 2 2 2 2 2 2 2 2 2 2 2 2 2 2 1 2 2 2
6 6 5 5 5 5 5 6 6 6 7 7 7 7 6 5 5 5 4 4 4 3 2 2 2 2 2 2 2 2 3 2 2 2 2 2 2 2 2 2 2 2 2
6 6 6 5 5 5 5 5 5 5 5 5 5 6 6 5 4 4 4 3 2 2 1 1 2 2 2 2 2 2 2 2 2 1 1 1 1 2 1 2 2 2 2
6 5 5 5 5 5 5 4 4 5 4 4 4 4 5 5 4 4 3 2 2 1 1 2 2 2 2 2 2 2 2 2 2 2 1 1 1 1 1 1 2 2 2
5 7 6 5 4 4 4 4 4 4 4 4 4 4 4 3 2 2 2 2 2 2 1 2 2 2 2 2 2 2 2 1 2 2 1 1 1 1 2 2 2 2 1
5 5 7 5 4 4 4 4 4 3 3 3 3 4 5 2 2 2 2 2 2 2 2 2 2 2 2 2 2 2 2 2 2 2 1 1 1 1 1 2 2 2 1
4 4 4 4 4 4 4 4 4 3 3 4 3 3 5 3 2 2 2 2 2 2 2 2 2 2 3 3 2 2 2 2 2 2 1 1 1 1 1 1 1 1 1
4 4 4 4 4 5 4 4 3 3 3 3 3 3 3 2 2 2 2 2 2 2 2 2 2 3 2 2 2 2 2 2 2 2 1 1 1 1 1 1 2 2 2
4 4 4 4 4 3 3 3 3 3 3 3 3 3 3 3 3 3 3 3 3 3 2 2 2 3 3 3 2 2 2 2 2 2 2 2 2 2 1 1 1 2 2
4 4 4 4 4 4 4 4 4 4 3 3 3 3 3 3 3 3 3 3 3 3 3 3 3 3 3 3 3 3 3 3 3 2 2 2 2 2 2 2 2 1 1
4 4 4 3 3 3 3 4 4 4 4 4 3 3 3 3 3 3 3 3 3 3 3 3 3 4 4 3 3 4 4 4 4 4 2 2 2 2 2 2 2 2 2
Wind_Direction
305 299 293 289 289 286 282 271 262 259 254 252 253 252 252 251 249 246 248 246 242 243 242 242 242 239 236 236 238 238 241 240 250 258 256 253 245 252 248 244 239 236 230
301 296 292 291 294 291 286 281 272 262 257 253 251 251 250 251 252 251 251 246 242 241 242 242 243 239 236 235 236 238 243 240 246 254 255 252 253 252 250 244 245 242 239
300 296 296 296 296 292 290 287 279 270 263 257 252 251 251 250 251 251 249 245 241 241 242 241 242 241 238 235 236 238 242 242 243 248 251 252 256 250 251 248 247 244 243
303 298 296 296 295 292 289 287 280 274 267 260 255 255 254 252 252 251 248 244 241 241 242 241 242 241 242 240 238 240 239 238 239 240 242 243 248 244 240 238 242 235 237
304 299 300 301 296 292 291 289 281 276 271 265 259 256 256 252 251 250 247 247 243 243 244 243 242 243 246 249 244 242 237 234 236 238 239 241 241 231 233 233 240 239 248
304 303 305 302 298 296 296 295 290 281 275 270 265 261 258 253 257 254 252 250 246 244 246 246 245 242 244 249 247 247 243 234 235 237 238 237 241 240 244 238 231 227 245
303 302 303 301 299 298 298 297 293 289 281 271 267 263 262 261 262 257 254 253 250 248 248 248 247 248 245 247 244 244 244 241 238 238 240 241 242 237 239 241 235 232 240
302 302 302 301 300 301 299 295 291 288 283 277 272 270 267 269 272 264 259 253 256 254 250 249 250 252 247 251 247 244 244 239 236 237 240 243 244 244 238 241 242 244 257
303 304 305 303 300 298 296 295 293 290 285 279 275 273 271 275 279 271 260 253 254 256 255 252 251 252 258 256 250 245 246 244 240 241 248 251 249 248 243 235 225 221 236
305 306 305 302 297 294 293 293 292 289 286 280 276 274 273 274 281 277 263 251 253 255 254 252 250 255 258 254 249 245 244 245 243 247 249 250 241 236 233 228 220 215 221
305 303 302 299 295 291 291 292 293 292 290 282 277 277 275 276 280 278 270 256 252 254 254 255 254 257 254 254 254 252 253 250 239 239 243 243 237 228 225 229 225 218 217
305 303 301 300 297 294 293 294 293 290 287 284 280 277 275 274 277 278 271 266 265 255 255 256 256 257 255 257 254 259 264 255 238 233 234 234 231 229 223 225 227 237 245
304 302 302 302 300 298 295 295 293 288 283 283 282 281 282 280 279 278 275 274 272 265 262 265 270 267 262 256 256 261 257 247 239 232 232 236 234 227 221 215 212 212 241
301 303 303 302 302 301 295 291 288 286 283 280 278 279 282 285 286 284 276 270 266 264 266 268 267 268 270 275 272 260 249 249 247 244 246 245 236 221 220 217 214 204 210
299 300 301 300 301 300 296 293 291 284 286 283 277 276 277 277 288 296 289 281 274 271 275 270 268 260 262 269 275 272 265 256 252 254 252 245 237 227 228 217 211 209 218
298 300 299 299 298 297 298 296 293 292 299 294 289 285 279 282 292 292 292 295 295 287 273 264 263 262 264 268 275 279 271 267 265 271 256 236 236 232 234 235 220 212 211
292 296 296 296 297 298 298 299 303 306 307 309 301 294 294 302 300 301 303 304 306 290 267 264 264 265 266 266 270 271 276 287 285 272 261 241 235 236 227 227 225 222 222
293 294 295 294 295 296 297 297 300 305 311 312 314 316 313 311 314 315 311 307 305 307 293 283 283 282 279 274 276 280 283 287 283 277 267 249 247 238 225 228 231 231 228
296 295 294 292 292 295 296 300 304 304 306 312 323 327 324 316 312 319 319 301 295 297 291 288 285 283 286 282 278 279 281 282 287 283 266 256 252 243 237 241 235 227 236
296 301 305 301 298 300 302 307 308 309 311 317 321 322 323 323 326 327 324 315 300 293 283 280 282 284 282 285 285 281 285 286 282 278 248 232 249 251 244 244 236 226 230
300 303 307 304 303 307 309 309 310 311 312 311 314 325 332 326 322 317 311 302 293 289 284 281 281 284 280 281 284 283 284 282 280 279 254 220 233 247 251 245 244 241 226
301 303 304 306 307 310 310 309 311 311 315 314 316 324 333 328 320 313 308 306 304 299 294 290 287 286 282 277 278 283 281 278 278 278 261 224 228 239 245 242 236 242 224
302 306 310 310 307 310 311 315 317 316 317 320 320 323 327 324 320 315 314 313 313 309 305 295 289 290 292 294 285 277 274 276 275 267 256 238 234 235 237 236 235 239 228
307 309 310 311 312 312 313 316 317 319 320 321 322 324 324 324 323 322 318 316 314 309 306 301 295 299 305 308 304 300 295 298 292 263 247 231 235 237 238 241 244 231 220
312 312 310 311 313 315 317 319 320 321 320 319 318 318 317 318 318 317 315 314 312 311 314 308 302 308 312 306 303 304 310 306 294 276 251 232 229 230 228 227 222 217 216
318 316 313 313 313 315 316 316 318 319 318 318 316 312 312 312 311 312 313 312 309 310 313 311 311 312 312 311 310 312 313 306 294 283 267 244 232 227 221 214 207 207 205